Location: Linton
(52.0940°N, 0.2850°E)
Time: 05:15:47
(UTC+00:00)

Tiangong 2 - Visible Passes

Search period start: 20 January 2018 00:00
Search period end: 30 January 2018 00:00
Orbit: 384 x 390 km, 42.8° (Epoch: 18 January)

Date Brightness Start Highest point End Pass type
(mag) Time Alt. Az. Time Alt. Az. Time Alt. Az.
20 Jan 3.9 06:50:32 10° SSW 06:52:25 15° S 06:54:19 10° SE visible
21 Jan 3.9 05:52:28 10° SSW 05:53:57 13° SSE 05:55:27 10° SE visible
22 Jan 3.6 06:29:29 10° SW 06:31:31 16° S 06:33:34 10° SE visible
23 Jan 3.6 05:32:48 15° S 05:33:02 15° S 05:34:55 10° SE visible
23 Jan 3.7 07:07:16 10° SW 07:09:05 14° S 07:10:52 10° SSE visible
24 Jan 3.5 06:09:05 12° SW 06:10:35 16° S 06:12:35 10° SE visible
25 Jan 3.8 05:13:04 14° SSE 05:13:04 14° SSE 05:14:07 10° SE visible
25 Jan 3.7 06:46:52 10° SW 06:48:06 12° SSW 06:49:20 10° S visible
26 Jan 3.5 05:49:18 14° SSW 05:49:37 14° S 05:51:23 10° SSE visible
28 Jan 3.9 05:29:31 11° S 05:29:31 11° S 05:29:45 10° S visible
